User: anonymous   Login
Location: Unspecified
(0.0000°N, 0.0000°E)
Time: 23:30:06
(UTC+00:00)
Language:

STARLINK-30568 - Orbit

View from above orbital plane
View from above orbital plane
View from above satellite
View from above satellite

Ground track
Ground track

The orbit is defined by the following mean orbital elements,

1 58051U          26145.50841992 +.00000000 +00000-0 +60866-4 0 00008
2 58051  43.0029 313.6233 0001333 261.1590  98.9111 15.27580088    07
Epoch (UTC): 25 May 2026 12:12:07
Eccentricity: 0.0001333
inclination: 43.0029°
perigee height: 482 km
apogee height: 484 km
right ascension of ascending node: 313.6233°
argument of perigee: 261.1590°
revolutions per day: 15.27580088
mean anomaly at epoch: 98.9111°

The dashed part of the orbit path shows where the satellite is in the earth's shadow,  

DLR